User: anonymous   Login
Location: Unspecified
(42.1900°N, 71.3291°W)
Time: 19:08:15
(UTC-04:00)
Language:

Resurs 1-4 Rocket - Orbit

View from above orbital plane
View from above orbital plane
View from above satellite
View from above satellite

Ground track
Ground track

The orbit data is extracted from the following two-line orbital elements,

1 25400U 98043G   15183.48799140  .00000002  00000-0  18454-4 0  9993
2 25400 098.3855 147.6841 0008867 227.5825 132.4606 14.25336446883113
Epoch (UTC): 02 July 2015 11:42:42
Eccentricity: 0.0008867
inclination: 98.3855°
perigee height: 801 km
apogee height: 814 km
right ascension of ascending node: 147.6841°
argument of perigee: 227.5825°
revolutions per day: 14.25336446
mean anomaly at epoch: 132.4606°
orbit number at epoch: 88311

The dashed part of the orbit path shows where the satellite is in the earth's shadow,  

DLR